This demonstration page uses our WeatherBlox Daily Observations layout. Learn more.

Left ArrowRight Arrow

44.8408, -93.29828

Hourly Observations for August 10, 2017

Temp ( °F °C ) Dew Point ( °F °C ) Humidity (%) Winds ( mph kmh ) Pressure ( in mb ) Visibility ( mi km ) Precip ( " mm )
12:16 am 00:16 Cloudy with Strong Thunderstorms 63 17.2 59 15 87 87 WNW 17 28 29.94 1014 5 8 0.08 2.03
12:39 am 00:39 Cloudy with Nearby Thunderstorms 63 17.2 59 15 87 87 SE 10 17 29.94 1014 6 10 0.15 3.81
12:50 am 00:50 Cloudy with Rain 63 17 59 15 88 88 ESE 14 22 29.91 1013 6 10 0.18 4.57
12:53 am 00:53 Cloudy with Rain 63 17.2 59 15 87 87 ESE 17 28 29.90 1012 6 10 0.19 4.83
1:53 am 01:53 Cloudy 62 16.7 60 15.6 93 93 Calm 29.89 1012 10 16 0.01 0.25
2:53 am 02:53 Partly Cloudy 61 16.1 59 15 93 93 Calm 29.91 1013 9 14 0.00 0.00
3:28 am 03:28 Cloudy 62 16.7 59 15 90 90 Calm 29.91 1013 7 11 0.00 0.00
3:53 am 03:53 Mostly Cloudy with Mist and Fog 61 16.1 59 15 93 93 SSE 5 7 29.91 1013 6 10 0.00 0.00
4:53 am 04:53 Cloudy with Mist and Fog 62 16.7 60 15.6 93 93 Calm 29.92 1013 6 10 0.00 0.00
5:01 am 05:01 Cloudy 62 16.7 60 15.6 93 93 S 3 6 29.91 1013 7 11 0.00 0.00
5:53 am 05:53 Cloudy 62 16.7 59 15 90 90 WSW 6 9 29.92 1013 10 16 0.00 0.00
6:48 am 06:48 Cloudy 63 17 59 15 88 88 WNW 8 13 29.94 1014 8 13 0.00 0.00
6:53 am 06:53 Cloudy 62 16.7 59 15 90 90 WNW 9 15 29.95 1014 9 14 0.00 0.00
7:09 am 07:09 Cloudy 62 16.7 59 15 90 90 WNW 8 13 29.94 1014 10 16 0.00 0.00
7:15 am 07:15 Cloudy 62 16.7 59 15 90 90 NW 8 13 29.94 1014 10 16 0.00 0.00
7:29 am 07:29 Mostly Cloudy 63 17.2 59 15 87 87 NW 8 13 29.94 1014 10 16 0.00 0.00
7:53 am 07:53 Cloudy 62 16.7 59 15 90 90 WNW 7 11 29.96 1015 10 16 0.00 0.00
8:08 am 08:08 Cloudy 63 17.2 59 15 87 87 W 7 11 29.94 1014 10 16 0.00 0.00
8:15 am 08:15 Cloudy 63 17.2 59 15 87 87 WSW 7 11 29.94 1014 10 16 0.00 0.00
8:21 am 08:21 Cloudy 63 17.2 59 15 87 87 WSW 7 11 29.94 1014 10 16 0.00 0.00
8:45 am 08:45 Cloudy 62 16.7 59 15 90 90 W 6 9 29.94 1014 10 16 0.00 0.00
8:53 am 08:53 Cloudy 62 16.7 59 15 90 90 W 7 11 29.96 1014 10 16 0.00 0.00
9:20 am 09:20 Cloudy 64 17.8 59 15 84 84 WSW 7 11 29.94 1014 10 16 0.00 0.00
9:39 am 09:39 Cloudy 64 17.8 59 15 84 84 WSW 8 13 29.94 1014 10 16 0.00 0.00
9:53 am 09:53 Cloudy 65 18.3 59 15 81 81 W 8 13 29.96 1015 10 16 0.00 0.00
10:18 am 10:18 Cloudy 65 18.3 59 15 81 81 W 10 17 29.94 1014 10 16 0.00 0.00
10:34 am 10:34 Cloudy 66 18.9 59 15 78 78 W 10 17 29.94 1014 10 16 0.00 0.00
10:53 am 10:53 Cloudy 67 19.4 60 15.6 79 79 W 10 17 29.97 1015 10 16 0.00 0.00
11:15 am 11:15 Cloudy 68 20 60 15.6 76 76 W 12 19 29.94 1014 10 16 0.00 0.00
11:40 am 11:40 Cloudy 70 21.1 60 15.6 71 71 WNW 12 19 29.97 1015 10 16 0.00 0.00
11:53 am 11:53 Mostly Cloudy 72 22.2 60 15.6 66 66 WNW 12 19 29.98 1015 10 16 0.00 0.00
12:15 pm 12:15 Cloudy 71 21.7 59 15 66 66 WNW 13 20 29.97 1015 10 16 0.00 0.00
12:53 pm 12:53 Cloudy 71 21.7 59 15 66 66 WNW 15 24 29.98 1015 10 16 0.00 0.00
1:53 pm 13:53 Mostly Cloudy 72 22.2 60 15.6 66 66 NW 8 13 29.98 1015 10 16 0.00 0.00
2:53 pm 14:53 Mostly Cloudy with Light Rain 69 20.6 61 16.1 76 76 NW 18 30 29.98 1015 10 16 0.00 0.03
3:53 pm 15:53 Mostly Cloudy 71 21.7 62 16.7 73 73 NNW 12 19 29.98 1015 10 16 0.08 2.03
4:53 pm 16:53 Mostly Cloudy 71 21.7 62 16.7 73 73 N 9 15 30.00 1016 10 16 0.02 0.51
5:53 pm 17:53 Partly Cloudy 72 22.2 60 15.6 66 66 N 10 17 30.01 1016 10 16 0.00 0.03
6:53 pm 18:53 Mostly Cloudy 71 21.7 58 14.4 63 63 N 13 20 30.02 1017 10 16 0.00 0.00
7:53 pm 19:53 Mostly Sunny 69 20.6 57 13.9 66 66 N 7 11 30.04 1017 10 16 0.00 0.00
8:53 pm 20:53 Mostly Clear 67 19.4 57 13.9 71 71 NNE 8 13 30.04 1017 10 16 0.00 0.00
9:53 pm 21:53 Mostly Clear 66 18.9 57 13.9 73 73 VRB 6 9 30.06 1018 10 16 0.00 0.00
10:53 pm 22:53 Mostly Clear 65 18.3 57 13.9 76 76 N 8 13 30.06 1018 10 16 0.00 0.00
11:53 pm 23:53 Mostly Clear 63 17.2 57 13.9 81 81 N 7 11 30.07 1018 10 16 0.00 0.00

Powered by AerisWeather